Weather History for Rock Hill, SC

Change the Weather History Date:

Monday, March 17, 2014

  Actual Average Record
Temperature  
Mean Temperature 38 °F -  
Max Temperature 43 °F 62 °F 82 °F (2012)
Min Temperature 32 °F 38 °F 25 °F (1988)
Degree Days  
Heating Degree Days 26    
Moisture  
Dew Point 33 °F    
Average Humidity 92    
Maximum Humidity 97    
Minimum Humidity 87    
Precipitation  
Precipitation 0.39 in - - ()
Sea Level Pressure  
Sea Level Pressure 29.87 in    
Wind  
Wind Speed 8 mph (NE)    
Max Wind Speed 13 mph    
Max Gust Speed 20 mph    
Visibility 5 miles    
Events Rain    
Averages and records for this station are not official NWS values.
T = Trace of Precipitation, MM = Missing Value Source: NWS Daily Summary

Daily Weather History Graph

Daily Weather History Graph

Search for Another Location

Airport:

Trip Planner

Search our weather history database for the weather conditions in past years. The results will help you decide how hot, cold, wet, or windy it might be!

Date:

Astronomy

Mar. 17, 2014 Rise Set
Actual Time 7:32 AM EDT 7:33 PM EDT
Civil Twilight 7:06 AM EDT 7:58 PM EDT
Nautical Twilight 6:37 AM EDT 8:28 PM EDT
Astronomical Twilight 6:07 AM EDT 8:57 PM EDT
Moon 8:44 PM EDT (3/17) 7:49 AM EDT (3/17)
Length of Visible Light 12h 51m
Length of Day
12h 01m
Full, 99% of the Moon is Illuminated
Mar 17
Full
Mar 23
Last Quarter
Mar 30
New
Apr 7
First Quarter
Apr 15
Full

Hourly Weather History & Observations

Time (EDT) Temp. Windchill Dew Point Humidity Pressure Visibility Wind Dir Wind Speed Gust Speed Precip Events Conditions
12:10 AM 45.0 °F 39.7 °F 43.0 °F 93% 29.79 in 3.0 mi NNE 10.4 mph - 0.01 in Rain Light Rain
12:35 AM 44.1 °F 40.1 °F 42.1 °F 93% 29.79 in 2.5 mi NE 6.9 mph 19.6 mph 0.01 in Rain Light Rain
12:46 AM 44.1 °F 40.8 °F 42.1 °F 93% 29.79 in 4.0 mi NE 5.8 mph - 0.01 in Rain Light Rain
12:54 AM 44.1 °F 38.6 °F 42.1 °F 93% 29.79 in 5.0 mi NE 10.4 mph - 0.01 in Rain Light Rain
1:54 AM 42.1 °F 36.1 °F 39.9 °F 92% 29.81 in 4.0 mi NNE 10.4 mph 17.3 mph 0.01 in Rain Light Rain
2:54 AM 39.9 °F 32.9 °F 39.0 °F 97% 29.82 in 3.0 mi NNE 11.5 mph 17.3 mph 0.01 in Rain Light Rain
3:54 AM 37.9 °F 31.5 °F 37.0 °F 97% 29.80 in 6.0 mi NE 9.2 mph 18.4 mph 0.00 in   Overcast
4:45 AM 37.0 °F 29.3 °F 35.1 °F 93% 29.78 in 10.0 mi NE 11.5 mph 17.3 mph N/A   Overcast
4:54 AM 37.0 °F 28.9 °F 35.1 °F 93% 29.80 in 10.0 mi NE 12.7 mph 17.3 mph N/A   Overcast
5:14 AM 37.0 °F 30.4 °F 34.0 °F 89% 29.78 in 10.0 mi NE 9.2 mph 19.6 mph N/A   Overcast
5:54 AM 36.0 °F 29.6 °F 34.0 °F 93% 29.81 in 9.0 mi ENE 8.1 mph - N/A   Overcast
6:54 AM 35.1 °F 28.6 °F 33.1 °F 92% 29.83 in 7.0 mi NE 8.1 mph - N/A   Overcast
7:54 AM 35.1 °F 27.9 °F 32.0 °F 89% 29.85 in 7.0 mi ENE 9.2 mph 17.3 mph N/A   Overcast
8:54 AM 34.0 °F 26.6 °F 32.0 °F 92% 29.84 in 3.0 mi ENE 9.2 mph 16.1 mph N/A   Overcast
9:54 AM 34.0 °F 28.8 °F 32.0 °F 92% 29.86 in 6.0 mi ENE 5.8 mph - N/A   Overcast
10:19 AM 34.0 °F 28.0 °F 32.0 °F 92% 29.85 in 2.5 mi Variable 6.9 mph - N/A   Overcast
10:54 AM 34.0 °F 28.8 °F 32.0 °F 92% 29.91 in 2.5 mi NE 5.8 mph - N/A   Overcast
11:08 AM 34.0 °F 28.8 °F 32.0 °F 92% 29.88 in 4.0 mi NE 5.8 mph - N/A   Overcast
11:31 AM 35.1 °F 27.9 °F 33.1 °F 92% 29.86 in 2.5 mi ENE 9.2 mph - N/A   Overcast
11:41 AM 35.1 °F 29.3 °F 33.1 °F 92% 29.88 in 1.5 mi NE 6.9 mph - N/A   Overcast
11:54 AM 34.0 °F 26.0 °F 32.0 °F 92% 29.89 in 2.0 mi ENE 10.4 mph 17.3 mph N/A   Overcast
12:04 PM 34.0 °F 26.6 °F 32.0 °F 92% 29.87 in 3.0 mi ENE 9.2 mph - N/A   Overcast
12:49 PM 35.6 °F 30.7 °F 32.0 °F 87% 29.89 in 10.0 mi Variable 5.8 mph - N/A   Overcast
12:54 PM 35.1 °F 29.3 °F 32.0 °F 89% 29.91 in 10.0 mi Variable 6.9 mph - N/A   Overcast
1:22 PM 34.0 °F 26.6 °F 30.9 °F 89% 29.87 in 6.0 mi NE 9.2 mph - N/A   Overcast
1:42 PM 34.0 °F 31.0 °F 30.9 °F 89% 29.88 in 1.8 mi Variable 3.5 mph - 0.05 in Rain Heavy Rain
1:54 PM 34.0 °F 29.8 °F 32.0 °F 92% 29.89 in 2.0 mi Variable 4.6 mph - 0.09 in Rain Rain
2:11 PM 34.0 °F 28.8 °F 32.0 °F 92% 29.87 in 3.0 mi NE 5.8 mph - 0.02 in Rain Light Rain
2:21 PM 34.0 °F 28.8 °F 32.0 °F 92% 29.87 in 6.0 mi NE 5.8 mph - 0.02 in Rain Light Rain
2:54 PM 34.0 °F 29.8 °F 32.0 °F 92% 29.88 in 6.0 mi ENE 4.6 mph - 0.03 in Rain Light Rain
2:59 PM 34.0 °F 27.2 °F 32.0 °F 92% 29.86 in 6.0 mi NE 8.1 mph - 0.01 in Rain Light Rain
3:12 PM 34.0 °F 27.2 °F 32.0 °F 92% 29.87 in 4.0 mi NE 8.1 mph - 0.02 in Rain Rain
3:43 PM 34.0 °F 27.2 °F 32.0 °F 92% 29.86 in 4.0 mi NE 8.1 mph - 0.04 in Rain Light Rain
3:54 PM 34.0 °F 27.2 °F 32.0 °F 92% 29.88 in 5.0 mi NE 8.1 mph - 0.04 in Rain Light Rain
4:09 PM 34.0 °F 28.8 °F 32.0 °F 92% 29.86 in 7.0 mi Variable 5.8 mph - 0.01 in Rain Light Rain
4:19 PM 34.0 °F 28.0 °F 30.9 °F 89% 29.86 in 6.0 mi NE 6.9 mph - 0.01 in Rain Light Rain
4:54 PM 34.0 °F 28.0 °F 32.0 °F 92% 29.86 in 6.0 mi Variable 6.9 mph - 0.01 in Rain Light Rain
5:51 PM 33.8 °F 27.7 °F 30.2 °F 87% 29.87 in 6.0 mi NE 6.9 mph - 0.02 in Rain Light Rain
5:54 PM 34.0 °F 29.8 °F 30.9 °F 89% 29.90 in 6.0 mi Variable 4.6 mph - 0.02 in Rain Light Rain
6:31 PM 34.0 °F 31.0 °F 32.0 °F 92% 29.85 in 8.0 mi Variable 3.5 mph - 0.00 in   Overcast
6:54 PM 34.0 °F 27.2 °F 30.9 °F 89% 29.91 in 8.0 mi NE 8.1 mph - 0.00 in Rain Light Rain
7:54 PM 33.1 °F 27.7 °F 32.0 °F 96% 29.92 in 4.0 mi Variable 5.8 mph - 0.01 in Rain Light Rain
8:18 PM 33.1 °F 27.7 °F 32.0 °F 96% 29.89 in 4.0 mi NE 5.8 mph - 0.00 in Rain Light Rain
8:54 PM 33.1 °F 27.7 °F 32.0 °F 96% 29.93 in 4.0 mi NE 5.8 mph - 0.01 in   Overcast
9:31 PM 33.1 °F 28.7 °F 30.9 °F 92% 29.91 in 3.0 mi Variable 4.6 mph - 0.01 in Rain Rain
9:38 PM 33.1 °F 28.7 °F 30.9 °F 92% 29.92 in 4.0 mi NE 4.6 mph - 0.02 in Rain Light Rain
9:54 PM 33.1 °F 27.7 °F 30.9 °F 92% 29.96 in 4.0 mi ENE 5.8 mph - 0.02 in Rain Light Rain
10:17 PM 33.1 °F 30.0 °F 30.9 °F 92% 29.93 in 2.5 mi Variable 3.5 mph - 0.05 in Rain Rain
10:30 PM 33.1 °F 26.9 °F 32.0 °F 96% 29.94 in 4.0 mi NE 6.9 mph - 0.06 in Rain Light Rain
10:54 PM 33.1 °F 26.9 °F 30.9 °F 92% 29.97 in 5.0 mi NNE 6.9 mph - 0.08 in Rain Light Rain
11:18 PM 32.0 °F 26.4 °F 30.0 °F 92% 29.95 in 5.0 mi ENE 5.8 mph - 0.02 in   Overcast
11:36 PM 32.0 °F 26.4 °F 30.0 °F 92% 29.94 in 4.0 mi ENE 5.8 mph - 0.05 in   Overcast
11:54 PM 32.0 °F 26.4 °F 30.9 °F 96% 29.97 in 7.0 mi NE 5.8 mph - 0.05 in   Overcast